User: anonymous
Location: Unspecified
(0.0000°N, 0.0000°E)
Time: 09:44:08
(UTC+00:00)
Language:

Tiangong 1 - Orbit

View from above orbital plane
View from above orbital plane
View from above satellite
View from above satellite

Ground track
Ground track

The orbit data is extracted from the following two-line orbital elements,

1 37820U 11053A   14292.87779212  .00051327  00000-0  40870-3 0  4974
2 37820 042.7705 280.5553 0006264 128.3826 308.4558 15.70356049175627
Epoch (UTC): 19 October 2014 21:04:01
Eccentricity: 0.0006264
inclination: 42.7705°
perigee height: 353 km
apogee height: 362 km
right ascension of ascending node: 280.5553°
argument of perigee: 128.3826°
revolutions per day: 15.70356049
mean anomaly at epoch: 308.4558°
orbit number at epoch: 17562

The dashed part of the orbit path shows where the satellite is in the earth's shadow,  

DLR